Time,TemperatureF,DewpointF,PressureIn,WindDirection,WindDirectionDegrees,WindSpeedMPH,WindSpeedGustMPH,Humidity,HourlyPrecipIn,Conditions,Clouds,dailyrainin,SoftwareType,DateUTC
2013-08-31 00:01:00,84.2,64.0,29.81,SSW,198,0.0,0.0,51,0.00,,,0.00,weatherlink.com 1.10,2013-08-31 05:01:00,
2013-08-31 00:16:00,84.2,65.0,29.81,SSW,198,3.0,4.0,52,0.00,,,0.00,weatherlink.com 1.10,2013-08-31 05:16:00,
2013-08-31 00:31:00,84.6,66.0,29.82,SSW,198,2.0,4.0,53,0.00,,,0.00,weatherlink.com 1.10,2013-08-31 05:31:00,
2013-08-31 00:46:00,84.8,66.0,29.82,South,186,5.0,8.0,54,0.00,,,0.00,weatherlink.com 1.10,2013-08-31 05:46:00,
2013-08-31 01:01:00,84.5,66.0,29.82,South,179,2.0,7.0,54,0.00,,,0.00,weatherlink.com 1.10,2013-08-31 06:01:00,
2013-08-31 01:16:00,84.6,67.0,29.82,South,179,5.0,10.0,55,0.00,,,0.00,weatherlink.com 1.10,2013-08-31 06:16:00,
2013-08-31 01:31:00,84.9,67.0,29.83,South,177,3.0,10.0,55,0.00,,,0.00,weatherlink.com 1.10,2013-08-31 06:31:00,
2013-08-31 01:46:00,84.7,67.0,29.82,South,177,3.0,9.0,56,0.00,,,0.00,weatherlink.com 1.10,2013-08-31 06:46:00,
2013-08-31 02:01:00,84.4,67.0,29.83,South,177,5.0,8.0,56,0.00,,,0.00,weatherlink.com 1.10,2013-08-31 07:01:00,
2013-08-31 02:16:00,84.0,67.0,29.83,South,177,8.0,9.0,57,0.00,,,0.00,weatherlink.com 1.10,2013-08-31 07:16:00,
2013-08-31 02:31:00,83.9,67.0,29.83,South,177,2.0,11.0,57,0.00,,,0.00,weatherlink.com 1.10,2013-08-31 07:31:00,
2013-08-31 02:46:00,83.6,67.0,29.83,South,190,8.0,11.0,57,0.00,,,0.00,weatherlink.com 1.10,2013-08-31 07:46:00,
2013-08-31 03:01:00,83.3,66.0,29.83,SSW,194,4.0,11.0,57,0.00,,,0.00,weatherlink.com 1.10,2013-08-31 08:01:00,
2013-08-31 03:16:00,83.2,67.0,29.84,SSW,192,7.0,10.0,58,0.00,,,0.00,weatherlink.com 1.10,2013-08-31 08:16:00,
2013-08-31 03:31:00,83.1,67.0,29.83,South,190,4.0,8.0,58,0.00,,,0.00,weatherlink.com 1.10,2013-08-31 08:31:00,
2013-08-31 03:46:00,82.9,67.0,29.84,South,184,3.0,8.0,59,0.00,,,0.00,weatherlink.com 1.10,2013-08-31 08:46:00,
2013-08-31 04:01:00,82.7,67.0,29.84,South,184,4.0,7.0,59,0.00,,,0.00,weatherlink.com 1.10,2013-08-31 09:01:00,
2013-08-31 04:16:00,82.5,67.0,29.84,South,184,4.0,7.0,60,0.00,,,0.00,weatherlink.com 1.10,2013-08-31 09:16:00,
2013-08-31 04:31:00,82.1,67.0,29.84,South,184,5.0,8.0,60,0.00,,,0.00,weatherlink.com 1.10,2013-08-31 09:31:00,
2013-08-31 04:46:00,81.9,67.0,29.84,South,184,2.0,7.0,61,0.00,,,0.00,weatherlink.com 1.10,2013-08-31 09:46:00,
2013-08-31 05:01:00,81.8,67.0,29.84,South,184,6.0,8.0,61,0.00,,,0.00,weatherlink.com 1.10,2013-08-31 10:01:00,
2013-08-31 05:16:00,81.5,67.0,29.83,South,184,4.0,8.0,62,0.00,,,0.00,weatherlink.com 1.10,2013-08-31 10:16:00,
2013-08-31 05:31:00,81.2,67.0,29.83,South,184,2.0,7.0,62,0.00,,,0.00,weatherlink.com 1.10,2013-08-31 10:31:00,
2013-08-31 05:46:00,80.8,66.0,29.84,South,184,7.0,9.0,62,0.00,,,0.00,weatherlink.com 1.10,2013-08-31 10:46:00,
2013-08-31 06:01:00,80.4,67.0,29.84,South,184,5.0,6.0,63,0.00,,,0.00,weatherlink.com 1.10,2013-08-31 11:01:00,
2013-08-31 06:16:00,80.0,67.0,29.84,South,184,2.0,7.0,64,0.00,,,0.00,weatherlink.com 1.10,2013-08-31 11:16:00,
2013-08-31 06:31:00,79.6,66.0,29.84,South,184,5.0,7.0,64,0.00,,,0.00,weatherlink.com 1.10,2013-08-31 11:31:00,
2013-08-31 06:46:00,79.3,66.0,29.85,South,184,4.0,7.0,64,0.00,,,0.00,weatherlink.com 1.10,2013-08-31 11:46:00,
2013-08-31 07:01:00,79.1,66.0,29.85,South,184,2.0,4.0,65,0.00,,,0.00,weatherlink.com 1.10,2013-08-31 12:01:00,
2013-08-31 07:16:00,78.9,66.0,29.85,South,184,0.0,4.0,65,0.00,,,0.00,weatherlink.com 1.10,2013-08-31 12:16:00,
2013-08-31 07:31:00,78.7,66.0,29.85,South,184,4.0,5.0,65,0.00,,,0.00,weatherlink.com 1.10,2013-08-31 12:31:00,
2013-08-31 07:46:00,78.9,67.0,29.85,South,184,1.0,4.0,66,0.00,,,0.00,weatherlink.com 1.10,2013-08-31 12:46:00,
2013-08-31 08:01:00,79.7,68.0,29.86,South,184,0.0,3.0,67,0.00,,,0.00,weatherlink.com 1.10,2013-08-31 13:01:00,
2013-08-31 08:17:00,80.7,69.0,29.86,South,184,2.0,5.0,67,0.00,,,0.00,weatherlink.com 1.10,2013-08-31 13:17:00,
2013-08-31 08:31:00,81.2,69.0,29.86,South,184,3.0,8.0,67,0.00,,,0.00,weatherlink.com 1.10,2013-08-31 13:31:00,
2013-08-31 08:46:00,81.7,70.0,29.86,South,184,2.0,5.0,67,0.00,,,0.00,weatherlink.com 1.10,2013-08-31 13:46:00,
2013-08-31 09:01:00,82.0,70.0,29.86,South,184,1.0,5.0,67,0.00,,,0.00,weatherlink.com 1.10,2013-08-31 14:01:00,
2013-08-31 09:16:00,82.6,70.0,29.86,South,184,3.0,5.0,66,0.00,,,0.00,weatherlink.com 1.10,2013-08-31 14:16:00,
2013-08-31 09:32:00,83.2,70.0,29.87,South,184,2.0,4.0,65,0.00,,,0.00,weatherlink.com 1.10,2013-08-31 14:32:00,
2013-08-31 09:47:00,84.1,71.0,29.87,South,184,0.0,5.0,65,0.00,,,0.00,weatherlink.com 1.10,2013-08-31 14:47:00,
2013-08-31 10:02:00,84.7,71.0,29.87,South,184,3.0,4.0,64,0.00,,,0.00,weatherlink.com 1.10,2013-08-31 15:02:00,
2013-08-31 10:17:00,85.5,72.0,29.86,South,184,3.0,5.0,64,0.00,,,0.00,weatherlink.com 1.10,2013-08-31 15:17:00,
2013-08-31 10:32:00,86.5,72.0,29.87,South,184,4.0,7.0,63,0.00,,,0.00,weatherlink.com 1.10,2013-08-31 15:32:00,
2013-08-31 10:47:00,86.4,72.0,29.86,South,184,5.0,7.0,63,0.00,,,0.00,weatherlink.com 1.10,2013-08-31 15:47:00,
2013-08-31 11:02:00,86.1,72.0,29.86,South,184,5.0,7.0,62,0.00,,,0.00,weatherlink.com 1.10,2013-08-31 16:02:00,
2013-08-31 11:17:00,86.6,72.0,29.86,South,184,3.0,7.0,62,0.00,,,0.00,weatherlink.com 1.10,2013-08-31 16:17:00,
2013-08-31 11:32:00,87.4,73.0,29.85,South,184,5.0,7.0,62,0.00,,,0.00,weatherlink.com 1.10,2013-08-31 16:32:00,
2013-08-31 11:47:00,88.6,73.0,29.85,SSW,198,0.0,9.0,61,0.00,,,0.00,weatherlink.com 1.10,2013-08-31 16:47:00,
2013-08-31 12:02:00,89.9,74.0,29.85,South,189,5.0,7.0,60,0.00,,,0.00,weatherlink.com 1.10,2013-08-31 17:02:00,
2013-08-31 12:17:00,90.8,74.0,29.84,South,170,3.0,8.0,59,0.00,,,0.00,weatherlink.com 1.10,2013-08-31 17:17:00,
2013-08-31 12:32:00,91.2,74.0,29.84,SSE,168,5.0,8.0,58,0.00,,,0.00,weatherlink.com 1.10,2013-08-31 17:32:00,
2013-08-31 12:47:00,91.5,74.0,29.83,SSE,161,3.0,10.0,57,0.00,,,0.00,weatherlink.com 1.10,2013-08-31 17:47:00,
2013-08-31 13:02:00,92.1,74.0,29.83,SSE,163,4.0,9.0,56,0.00,,,0.00,weatherlink.com 1.10,2013-08-31 18:02:00,
2013-08-31 13:17:00,92.4,74.0,29.82,SSE,163,5.0,8.0,55,0.00,,,0.00,weatherlink.com 1.10,2013-08-31 18:17:00,
2013-08-31 13:32:00,93.2,74.0,29.81,SSE,163,4.0,7.0,54,0.00,,,0.00,weatherlink.com 1.10,2013-08-31 18:32:00,
2013-08-31 13:47:00,94.0,74.0,29.81,SSE,163,4.0,7.0,52,0.00,,,0.00,weatherlink.com 1.10,2013-08-31 18:47:00,
2013-08-31 14:02:00,94.6,73.0,29.80,SSE,163,0.0,5.0,50,0.00,,,0.00,weatherlink.com 1.10,2013-08-31 19:02:00,
2013-08-31 14:17:00,95.6,74.0,29.80,SSE,163,2.0,6.0,49,0.00,,,0.00,weatherlink.com 1.10,2013-08-31 19:17:00,
2013-08-31 14:32:00,96.0,73.0,29.79,SSE,163,2.0,6.0,48,0.00,,,0.00,weatherlink.com 1.10,2013-08-31 19:32:00,
2013-08-31 14:47:00,96.3,72.0,29.79,SSE,163,2.0,6.0,46,0.00,,,0.00,weatherlink.com 1.10,2013-08-31 19:47:00,
2013-08-31 15:02:00,97.3,73.0,29.78,SSE,163,1.0,5.0,45,0.00,,,0.00,weatherlink.com 1.10,2013-08-31 20:02:00,
2013-08-31 15:17:00,97.8,72.0,29.77,SSE,163,2.0,6.0,44,0.00,,,0.00,weatherlink.com 1.10,2013-08-31 20:17:00,
2013-08-31 15:32:00,98.0,72.0,29.77,South,186,0.0,7.0,43,0.00,,,0.00,weatherlink.com 1.10,2013-08-31 20:32:00,
2013-08-31 15:48:00,97.8,71.0,29.76,SSE,165,2.0,8.0,42,0.00,,,0.00,weatherlink.com 1.10,2013-08-31 20:48:00,
2013-08-31 16:03:00,98.1,71.0,29.75,SSE,165,0.0,4.0,41,0.00,,,0.00,weatherlink.com 1.10,2013-08-31 21:03:00,
2013-08-31 16:20:00,98.7,70.0,29.75,SSE,164,3.0,5.0,40,0.00,,,0.00,weatherlink.com 1.10,2013-08-31 21:20:00,
2013-08-31 16:33:00,98.7,70.0,29.74,SSE,165,4.0,7.0,40,0.00,,,0.00,weatherlink.com 1.10,2013-08-31 21:33:00,